Ontario, CA

2:13 AM PST on December 13, 2017 (GMT -0800)
Ontario International

Weather History for KONT - January, 2013

Change the Weather History Date:

Sunday, January 27, 2013

  Actual Average Record
Temperature  
Mean Temperature 56 °F 54 °F  
Max Temperature 59 °F 65 °F 79 °F (2003)
Min Temperature 53 °F 44 °F 39 °F (2002)
Degree Days  
Heating Degree Days 9 11  
Month to date heating degree days 298 297  
Since 1 July heating degree days 765 857  
Cooling Degree Days 0 0  
Month to date cooling degree days 1 0  
Year to date cooling degree days 1 0  
Growing Degree Days 2 (Base 50)    
Moisture  
Dew Point 46 °F    
Average Humidity 75    
Maximum Humidity 93    
Minimum Humidity 57    
Precipitation  
Precipitation 0.00 in 0.04 in 1.07 in (2008)
Month to date precipitation 0.97 2.99  
Year to date precipitation 0.97 2.99  
Since 1 July precipitation 3.74  
Snow  
Snow 0.00 in - - ()
Month to date snowfall 0.0  
Year to date snowfall 0.0  
Snow Depth 0.00 in    
Sea Level Pressure  
Sea Level Pressure 29.98 in    
Wind  
Wind Speed 9 mph (WSW)    
Max Wind Speed 17 mph    
Max Gust Speed 23 mph    
Visibility 9 miles    
Events Rain , Thunderstorm    
T = Trace of Precipitation, MM = Missing Value Source: NWS Daily Summary

Daily Weather History Graph

Daily Weather History Graph

Search for Another Location

Airport or City:

Trip Planner

Search our weather history database for the weather conditions in past years. The results will help you decide how hot, cold, wet, or windy it might be!

Date:

Astronomy

Jan. 27, 2013 Rise Set
Actual Time 6:50 AM PST 5:16 PM PST
Civil Twilight 6:24 AM PST 5:42 PM PST
Nautical Twilight 5:53 AM PST 6:12 PM PST
Astronomical Twilight 5:24 AM PST 6:42 PM PST
Moon 6:10 PM PST (1/27) 6:50 AM PST (1/27)
Length of Visible Light 11h 18m
Length of Day
10h 25m
Full, 100% of the Moon is Illuminated
Jan 27
Full
Feb 3
Last Quarter
Feb 9
New
Feb 17
First Quarter
Feb 25
Full

Hourly Weather History & Observations

Time (PST) Temp. Windchill Dew Point Humidity Pressure Visibility Wind Dir Wind Speed Gust Speed Precip Events Conditions
12:13 AM 55.4 °F - 53.6 °F 94% 29.99 in 2.0 mi West 6.9 mph - N/A   Overcast
12:53 AM 55.0 °F - 54.0 °F 96% 29.98 in 2.0 mi West 9.2 mph - N/A   Overcast
1:17 AM 55.4 °F - 53.6 °F 94% 29.99 in 4.0 mi West 6.9 mph - N/A   Overcast
1:53 AM 55.0 °F - 53.1 °F 93% 29.98 in 10.0 mi West 6.9 mph - N/A   Overcast
2:53 AM 55.0 °F - 52.0 °F 89% 29.97 in 10.0 mi West 6.9 mph - N/A   Overcast
3:53 AM 54.0 °F - 52.0 °F 93% 29.96 in 10.0 mi WNW 6.9 mph - N/A   Overcast
4:53 AM 55.0 °F - 52.0 °F 89% 29.95 in 10.0 mi West 6.9 mph - N/A   Overcast
5:53 AM 55.0 °F - 51.1 °F 86% 29.96 in 10.0 mi West 4.6 mph - N/A   Overcast
6:53 AM 55.0 °F - 51.1 °F 86% 29.97 in 10.0 mi West 6.9 mph - N/A   Overcast
7:53 AM 54.0 °F - 51.1 °F 90% 29.98 in 10.0 mi West 8.1 mph - N/A   Overcast
8:53 AM 53.1 °F - 48.9 °F 86% 30.00 in 10.0 mi WSW 5.8 mph - N/A   Mostly Cloudy
9:53 AM 55.9 °F - 46.0 °F 69% 30.01 in 10.0 mi SW 15.0 mph 18.4 mph N/A   Mostly Cloudy
10:53 AM 57.0 °F - 44.1 °F 62% 30.00 in 10.0 mi SW 12.7 mph - N/A   Mostly Cloudy
11:00 AM 57.2 °F - 44.6 °F 63% 30.01 in 10.0 mi SW 11.5 mph - N/A   Mostly Cloudy
11:53 AM 57.9 °F - 44.1 °F 60% 29.98 in 10.0 mi WSW 10.4 mph - N/A   Mostly Cloudy
12:53 PM 59.0 °F - 45.0 °F 60% 29.96 in 10.0 mi WSW 15.0 mph 21.9 mph N/A   Mostly Cloudy
1:53 PM 57.9 °F - 46.0 °F 65% 29.95 in 10.0 mi WSW 15.0 mph - N/A   Mostly Cloudy
2:53 PM 57.0 °F - 43.0 °F 59% 29.94 in 10.0 mi SW 12.7 mph 19.6 mph N/A   Mostly Cloudy
3:53 PM 55.9 °F - 42.1 °F 60% 29.95 in 10.0 mi SW 12.7 mph - N/A   Scattered Clouds
4:53 PM 55.0 °F - 42.1 °F 62% 29.94 in 10.0 mi SW 12.7 mph - N/A   Mostly Cloudy
5:22 PM 53.6 °F - 44.6 °F 72% 29.95 in 10.0 mi West 9.2 mph 18.4 mph N/A   Mostly Cloudy
5:53 PM 52.0 °F - 44.1 °F 74% 29.96 in 10.0 mi WSW 6.9 mph - N/A   Mostly Cloudy
6:53 PM 51.1 °F - 41.0 °F 68% 29.97 in 10.0 mi SW 8.1 mph - N/A   Mostly Cloudy
7:53 PM 51.1 °F - 41.0 °F 68% 29.98 in 10.0 mi SSW 10.4 mph - N/A   Mostly Cloudy
8:46 PM 50.0 °F - 42.8 °F 76% 29.98 in 10.0 mi SSW 4.6 mph - N/A   Mostly Cloudy
8:53 PM 50.0 °F - 43.0 °F 77% 29.98 in 10.0 mi SW 3.5 mph - N/A   Mostly Cloudy
9:23 PM 50.0 °F - 42.8 °F 76% 29.98 in 10.0 mi WSW 5.8 mph - 0.00 in Rain Light Rain
9:46 PM 46.4 °F - 39.2 °F 76% 29.99 in 7.0 mi Calm Calm - 0.14 in Rain , Thunderstorm Thunderstorms and Rain
9:53 PM 46.0 °F - 39.9 °F 79% 29.99 in 7.0 mi Calm Calm - 0.15 in Rain , Thunderstorm Light Thunderstorms and Rain
10:04 PM 46.4 °F - 39.2 °F 76% 29.99 in 8.0 mi Calm Calm - 0.01 in Rain , Thunderstorm Light Thunderstorms and Rain
10:26 PM 46.4 °F - 41.0 °F 81% 29.99 in 10.0 mi Calm Calm - 0.01 in   Overcast
10:53 PM 46.9 °F - 42.1 °F 83% 30.00 in 10.0 mi NE 5.8 mph - 0.01 in   Overcast
11:53 PM 45.0 °F 40.6 °F 39.0 °F 80% 30.01 in 10.0 mi ENE 8.1 mph - 0.00 in   Mostly Cloudy